| time (UTC) | temp F | wind direction | speed MPH | gust MPH | rain 1hr in | rain 24hr in | rain mn in | humidity % | barometer mb |
| 20260504050025 | 44 | 0.0 | 0.0 | 0.00 | 0.00 | 0.00 | 59 | 1011.2 | |
| 20260504044524 | 45 | 0.0 | 0.0 | 0.00 | 0.00 | 0.00 | 59 | 1011.1 | |
| 20260504043023 | 45 | 0.0 | 0.0 | 0.00 | 0.00 | 0.00 | 58 | 1011.1 | |
| 20260504041536 | 45 | 0.0 | 0.0 | 0.00 | 0.00 | 0.00 | 58 | 1010.9 | |
| 20260504040022 | 45 | 0.0 | 0.0 | 0.00 | 0.00 | 0.00 | 57 | 1010.7 | |
| 20260504034518 | 45 | 0.0 | 0.0 | 0.00 | 0.00 | 0.00 | 57 | 1010.5 | |
| 20260504033017 | 45 | 0.0 | 0.0 | 0.00 | 0.00 | 0.00 | 56 | 1010.6 | |
| 20260504031517 | 45 | 0.0 | 0.0 | 0.00 | 0.00 | 0.00 | 57 | 1010.7 | |
| 20260504030016 | 45 | 0.0 | 0.0 | 0.00 | 0.00 | 0.00 | 56 | 1010.7 | |
| 20260504024516 | 46 | 0.0 | 0.0 | 0.00 | 0.00 | 0.00 | 55 | 1010.7 | |
| 20260504023015 | 46 | 0.0 | 0.0 | 0.00 | 0.00 | 0.00 | 55 | 1010.8 | |
| 20260504021515 | 46 | 0.0 | 0.0 | 0.00 | 0.00 | 0.00 | 54 | 1010.9 | |
| 20260504020023 | 47 | 0.0 | 0.0 | 0.00 | 0.00 | 0.00 | 53 | 1010.9 | |
| 20260504014518 | 47 | 0.0 | 0.0 | 0.00 | 0.00 | 0.00 | 52 | 1010.8 | |
| 20260504013013 | 47 | 0.0 | 0.0 | 0.00 | 0.00 | 0.00 | 51 | 1010.5 | |
| 20260504011514 | 48 | 0.0 | 0.0 | 0.00 | 0.00 | 0.00 | 51 | 1010.5 | |
| 20260504010013 | 48 | 0.0 | 0.0 | 0.00 | 0.00 | 0.00 | 49 | 1010.4 | |
| 20260504004515 | 49 | 0.0 | 0.0 | 0.00 | 0.00 | 0.00 | 48 | 1010.2 | |
| 20260504003012 | 50 | 0.0 | 0.0 | 0.00 | 0.00 | 0.00 | 47 | 1010.1 | |
| 20260504001521 | 50 | 0.0 | 0.0 | 0.00 | 0.00 | 0.00 | 46 | 1010.1 | |
| 20260504000012 | 51 | 0.0 | 0.0 | 0.00 | 0.00 | 0.00 | 45 | 1009.9 | |
| 20260503234511 | 52 | 0.0 | 0.0 | 0.00 | 0.00 | 0.00 | 44 | 1009.7 | |
| 20260503233017 | 52 | 0.0 | 0.0 | 0.00 | 0.00 | 0.00 | 43 | 1009.6 | |
| 20260503231510 | 52 | 0.0 | 0.0 | 0.00 | 0.00 | 0.00 | 42 | 1009.5 | |
| 20260503230025 | 52 | 0.0 | 0.0 | 0.00 | 0.00 | 0.00 | 43 | 1009.4 | |
| 20260503224512 | 52 | 0.0 | 0.0 | 0.00 | 0.00 | 0.00 | 41 | 1009.4 | |
| 20260503223009 | 53 | 0.0 | 0.0 | 0.00 | 0.00 | 0.00 | 39 | 1009.5 | |
| 20260503221509 | 53 | 0.0 | 0.0 | 0.00 | 0.00 | 0.00 | 41 | 1009.3 | |
| 20260503220008 | 53 | 0.0 | 0.0 | 0.00 | 0.00 | 0.00 | 40 | 1009.4 | |
| 20260503214522 | 54 | 0.0 | 0.0 | 0.00 | 0.00 | 0.00 | 37 | 1009.2 | |
| 20260503213006 | 54 | 0.0 | 0.0 | 0.00 | 0.00 | 0.00 | 37 | 1009.1 | |
| 20260503211506 | 53 | 0.0 | 0.0 | 0.00 | 0.00 | 0.00 | 37 | 1009.0 | |
| 20260503210007 | 53 | 0.0 | 0.0 | 0.00 | 0.00 | 0.00 | 35 | 1008.9 | |
| 20260503204506 | 54 | 0.0 | 0.0 | 0.00 | 0.00 | 0.00 | 34 | 1008.7 | |
| 20260503203103 | 54 | 0.0 | 0.0 | 0.00 | 0.00 | 0.00 | 34 | 1009.0 | |
| 20260503201501 | 54 | 0.0 | 0.0 | 0.00 | 0.00 | 0.00 | 36 | 1009.0 | |
| 20260503200100 | 53 | 0.0 | 0.0 | 0.00 | 0.00 | 0.00 | 37 | 1009.2 | |
| 20260503194607 | 52 | 0.0 | 0.0 | 0.00 | 0.00 | 0.00 | 36 | 1009.3 | |
| 20260503193110 | 52 | 0.0 | 0.0 | 0.00 | 0.00 | 0.00 | 36 | 1009.6 | |
| 20260503191611 | 52 | 0.0 | 0.0 | 0.00 | 0.00 | 0.00 | 37 | 1009.7 | |
| 20260503190053 | 52 | 0.0 | 0.0 | 0.00 | 0.00 | 0.00 | 37 | 1009.8 | |
| 20260503184550 | 51 | 0.0 | 0.0 | 0.00 | 0.00 | 0.00 | 40 | 1010.0 | |
| 20260503183049 | 50 | 0.0 | 0.0 | 0.00 | 0.00 | 0.00 | 40 | 1010.1 | |
| 20260503181551 | 50 | 0.0 | 0.0 | 0.00 | 0.00 | 0.00 | 40 | 1010.1 | |
| 20260503180056 | 50 | 0.0 | 0.0 | 0.00 | 0.00 | 0.00 | 42 | 1010.3 | |
| 20260503174552 | 49 | 0.0 | 0.0 | 0.00 | 0.00 | 0.00 | 42 | 1010.4 | |
| 20260503173042 | 48 | 0.0 | 0.0 | 0.00 | 0.00 | 0.00 | 43 | 1010.3 | |
| 20260503171541 | 48 | 0.0 | 0.0 | 0.00 | 0.00 | 0.00 | 42 | 1010.5 | |
| 20260503081555 | 37 | 0.0 | 0.0 | 0.00 | 0.00 | 0.00 | 72 | 1009.5 |